Weather History for Waterloo, IA

Change the Weather History Date:

Saturday, February 1, 2014

  Actual Average Record
Temperature  
Mean Temperature 13 °F 20 °F  
Max Temperature 22 °F 29 °F 52 °F (1911)
Min Temperature 4 °F 10 °F -30 °F (1918)
Degree Days  
Heating Degree Days 52 46  
Month to date heating degree days 52 46  
Since 1 July heating degree days 4903 4300  
Cooling Degree Days 0 0  
Month to date cooling degree days 0 0  
Year to date cooling degree days 0 0  
Moisture  
Dew Point 7 °F    
Average Humidity 81    
Maximum Humidity 91    
Minimum Humidity 71    
Precipitation  
Precipitation 0.15 in 0.03 in 1.08 in (1973)
Month to date precipitation 0.15 0.03  
Year to date precipitation 0.81 0.86  
Snow  
Snow 2.50 in 0.30 in 5.00 in (2011)
Month to date snowfall 2.5 0.3  
Since 1 July snowfall 33.8 21.8  
Snow Depth 4.00 in    
Sea Level Pressure  
Sea Level Pressure 30.04 in    
Wind  
Wind Speed 7 mph (North)    
Max Wind Speed 18 mph    
Max Gust Speed 24 mph    
Visibility 5 miles    
Events Snow    
T = Trace of Precipitation, MM = Missing Value Source: NWS Daily Summary

Daily Weather History Graph

Daily Weather History Graph

Search for Another Location

Airport:

Trip Planner

Search our weather history database for the weather conditions in past years. The results will help you decide how hot, cold, wet, or windy it might be!

Date:

Astronomy

Feb. 01, 2014 Rise Set
Actual Time 7:23 AM CST 5:23 PM CST
Civil Twilight 6:53 AM CST 5:53 PM CST
Nautical Twilight 6:20 AM CST 6:26 PM CST
Astronomical Twilight 5:46 AM CST 7:00 PM CST
Moon 8:09 AM CST (2/1) 8:03 PM CST (2/1)
Length of Visible Light 10h 59m
Length of Day
9h 59m
Waxing Crescent, 5% of the Moon is Illuminated
Feb 1
Waxing Crescent
Feb 6
First Quarter
Feb 14
Full
Feb 22
Last Quarter
Mar 1
New

Hourly Weather History & Observations

Time (CST) Temp. Windchill Dew Point Humidity Pressure Visibility Wind Dir Wind Speed Gust Speed Precip Events Conditions
12:54 AM 7.0 °F - -0.0 °F 73% 30.11 in 2.5 mi Calm Calm - 0.00 in Snow Light Snow
1:01 AM 6.1 °F -0.9 °F -0.0 °F 76% 30.04 in 1.8 mi ENE 3.5 mph - 0.01 in Snow Light Snow
1:54 AM 6.1 °F -4.3 °F 3.0 °F 87% 30.07 in 1.2 mi ENE 5.8 mph - 0.03 in Snow Light Snow
2:54 AM 7.0 °F -1.7 °F 3.9 °F 87% 30.06 in 2.5 mi ENE 4.6 mph - 0.02 in Snow Light Snow
3:01 AM 7.0 °F 0.1 °F 3.9 °F 87% 30.00 in 4.0 mi ENE 3.5 mph - 0.00 in Snow Light Snow
3:08 AM 7.0 °F 0.1 °F 3.9 °F 87% 30.00 in 6.0 mi ENE 3.5 mph - 0.00 in Snow Light Snow
3:51 AM 8.6 °F - 3.2 °F 79% 29.99 in 1.8 mi Calm Calm - 0.00 in Snow Light Snow
3:54 AM 8.1 °F - 3.9 °F 83% 30.05 in 1.5 mi Calm Calm - 0.00 in Snow Light Snow
4:03 AM 8.1 °F - 5.0 °F 87% 29.98 in 1.5 mi Calm Calm - 0.00 in Snow Light Snow
4:54 AM 9.0 °F 0.6 °F 5.0 °F 84% 30.02 in 1.5 mi ENE 4.6 mph - 0.03 in Snow Light Snow
5:38 AM 9.0 °F -0.9 °F 6.1 °F 88% 29.95 in 2.0 mi ENE 5.8 mph - 0.01 in Snow Light Snow
5:45 AM 9.0 °F 0.6 °F 6.1 °F 88% 29.95 in 1.8 mi ENE 4.6 mph - 0.01 in Snow Light Snow
5:54 AM 9.0 °F 0.6 °F 6.1 °F 88% 30.03 in 1.2 mi East 4.6 mph - 0.01 in Snow Light Snow
6:33 AM 10.0 °F 3.6 °F 7.0 °F 87% 29.95 in 2.0 mi NE 3.5 mph - 0.02 in Snow Light Snow
6:54 AM 10.0 °F 3.6 °F 7.0 °F 87% 30.02 in 1.8 mi NNE 3.5 mph - 0.02 in Snow Light Snow
7:20 AM 10.0 °F - 7.0 °F 87% 29.96 in 2.0 mi Calm Calm - 0.01 in Snow Light Snow
7:35 AM 10.0 °F 1.8 °F 7.0 °F 87% 29.96 in 1.8 mi North 4.6 mph - 0.01 in Snow Light Snow
7:46 AM 10.0 °F 1.8 °F 7.0 °F 87% 29.96 in 1.2 mi North 4.6 mph - 0.01 in Snow Light Snow
7:54 AM 10.0 °F 1.8 °F 7.0 °F 87% 30.02 in 1.2 mi North 4.6 mph - 0.02 in Snow Light Snow
8:04 AM 10.0 °F 1.8 °F 7.0 °F 87% 29.96 in 1.5 mi North 4.6 mph - 0.00 in Snow Light Snow
8:27 AM 10.9 °F 4.7 °F 7.0 °F 84% 29.96 in 2.5 mi North 3.5 mph - 0.00 in Snow Light Snow
8:34 AM 10.9 °F 2.9 °F 7.0 °F 84% 29.97 in 4.0 mi North 4.6 mph - 0.00 in Snow Light Snow
8:54 AM 10.9 °F 2.9 °F 7.0 °F 84% 30.02 in 5.0 mi North 4.6 mph - 0.00 in Snow Light Snow
9:09 AM 12.0 °F 5.9 °F 8.1 °F 84% 29.96 in 1.8 mi North 3.5 mph - 0.00 in Snow Light Snow
9:17 AM 12.0 °F 5.9 °F 8.1 °F 84% 29.96 in 2.0 mi NNE 3.5 mph - 0.01 in Snow Light Snow
9:32 AM 12.0 °F 5.9 °F 8.1 °F 84% 29.97 in 3.0 mi North 3.5 mph - 0.01 in Snow Light Snow
9:54 AM 12.9 °F 6.9 °F 8.1 °F 81% 30.03 in 3.0 mi North 3.5 mph - 0.01 in Snow Light Snow
10:28 AM 14.0 °F - 10.0 °F 84% 29.98 in 2.0 mi Calm Calm - 0.00 in Snow Light Snow
10:46 AM 15.1 °F - 10.0 °F 80% 29.99 in 3.0 mi Calm Calm - 0.00 in Snow Light Snow
10:54 AM 16.0 °F - 10.0 °F 77% 30.05 in 2.5 mi Calm Calm - 0.00 in Snow Light Snow
11:32 AM 17.1 °F 8.7 °F 12.0 °F 81% 29.99 in 1.8 mi NW 5.8 mph - 0.00 in Snow Light Snow
11:42 AM 17.1 °F 8.7 °F 12.0 °F 81% 29.99 in 2.0 mi NW 5.8 mph - 0.00 in Snow Light Snow
11:54 AM 18.0 °F 11.1 °F 12.9 °F 81% 30.04 in 2.0 mi NW 4.6 mph - 0.00 in Snow Light Snow
12:06 PM 18.0 °F 7.7 °F 12.9 °F 81% 29.98 in 4.0 mi NW 8.1 mph - 0.01 in Snow Light Snow
12:14 PM 18.0 °F 7.7 °F 12.9 °F 81% 29.97 in 6.0 mi NW 8.1 mph - 0.01 in   Haze
12:35 PM 18.0 °F 12.7 °F 12.0 °F 78% 29.96 in 10.0 mi NW 3.5 mph - 0.01 in   Scattered Clouds
12:54 PM 19.9 °F 13.4 °F 12.0 °F 71% 30.01 in 10.0 mi NNW 4.6 mph - 0.01 in   Clear
1:54 PM 21.0 °F 10.6 °F 14.0 °F 74% 30.02 in 10.0 mi NW 9.2 mph - N/A   Overcast
2:54 PM 19.9 °F 7.9 °F 14.0 °F 78% 30.03 in 10.0 mi NW 11.5 mph - N/A   Overcast
3:54 PM 19.9 °F 9.3 °F 15.1 °F 81% 30.05 in 10.0 mi NW 9.2 mph - N/A   Overcast
4:29 PM 19.0 °F 8.2 °F 14.0 °F 81% 30.01 in 10.0 mi NW 9.2 mph - N/A   Scattered Clouds
4:54 PM 19.0 °F 5.6 °F 12.9 °F 77% 30.07 in 10.0 mi NW 13.8 mph - N/A   Clear
5:54 PM 14.0 °F 2.0 °F 10.0 °F 84% 30.11 in 10.0 mi NW 9.2 mph - N/A   Clear
6:54 PM 10.9 °F -0.8 °F 7.0 °F 84% 30.15 in 10.0 mi WNW 8.1 mph - N/A   Clear
7:54 PM 10.0 °F -2.9 °F 5.0 °F 80% 30.18 in 10.0 mi WNW 9.2 mph - N/A   Clear
8:54 PM 9.0 °F -4.2 °F 3.0 °F 77% 30.21 in 10.0 mi WNW 9.2 mph - N/A   Clear
9:54 PM 7.0 °F -9.1 °F -0.0 °F 73% 30.23 in 10.0 mi NW 12.7 mph - N/A   Clear
10:54 PM 6.1 °F -10.9 °F -0.9 °F 73% 30.25 in 10.0 mi NW 13.8 mph - N/A   Clear
11:54 PM 3.9 °F -12.2 °F -2.0 °F 76% 30.27 in 10.0 mi NW 11.5 mph - N/A   Clear